| time (UTC) | temp F | wind direction | speed MPH | gust MPH | rain 1hr in | rain 24hr in | rain mn in | humidity % | barometer mb |
| 20260905234534 | 85 | 39 | 4.0 | 14.0 | 0.00 | 0.00 | 0.00 | 73 | 1010.8 |
| 20260905233040 | 88 | 58 | 4.0 | 14.0 | 0.00 | 0.00 | 0.00 | 70 | 1010.8 |
| 20260905231533 | 90 | 9 | 0.0 | 8.0 | 0.00 | 0.00 | 0.00 | 66 | 1010.5 |
| 20260905230038 | 90 | 360 | 0.0 | 11.0 | 0.00 | 0.00 | 0.00 | 65 | 1010.3 |
| 20260905224634 | 91 | 319 | 5.0 | 10.0 | 0.00 | 0.00 | 0.00 | 64 | 1010.2 |
| 20260905223031 | 92 | 338 | 0.0 | 9.0 | 0.00 | 0.00 | 0.00 | 63 | 1010.2 |
| 20260905221531 | 93 | 348 | 5.0 | 10.0 | 0.00 | 0.00 | 0.00 | 62 | 1010.1 |
| 20260905220035 | 94 | 340 | 5.0 | 11.0 | 0.00 | 0.00 | 0.00 | 61 | 1010.1 |
| 20260905214529 | 94 | 9 | 3.0 | 9.0 | 0.00 | 0.00 | 0.00 | 61 | 1009.9 |
| 20260905213029 | 93 | 336 | 0.0 | 11.0 | 0.00 | 0.00 | 0.00 | 62 | 1010.1 |
| 20260905211528 | 95 | 15 | 5.0 | 11.0 | 0.00 | 0.00 | 0.00 | 60 | 1010.1 |
| 20260905210027 | 95 | 333 | 0.0 | 10.0 | 0.00 | 0.00 | 0.00 | 60 | 1010.0 |
| 20260905204527 | 95 | 338 | 5.0 | 10.0 | 0.00 | 0.00 | 0.00 | 60 | 1010.2 |
| 20260905203025 | 94 | 355 | 0.0 | 1.0 | 0.00 | 0.00 | 0.00 | 63 | 1010.3 |
| 20260905201526 | 96 | 17 | 6.0 | 12.0 | 0.00 | 0.00 | 0.00 | 58 | 1010.2 |
| 20260905200026 | 97 | 312 | 4.0 | 10.0 | 0.00 | 0.00 | 0.00 | 56 | 1010.3 |
| 20260905194523 | 98 | 284 | 3.0 | 9.0 | 0.00 | 0.00 | 0.00 | 55 | 1010.3 |
| 20260905193023 | 96 | 341 | 0.0 | 10.0 | 0.00 | 0.00 | 0.00 | 58 | 1010.6 |
| 20260905191520 | 99 | 342 | 5.0 | 11.0 | 0.00 | 0.00 | 0.00 | 52 | 1010.7 |
| 20260905190019 | 98 | 350 | 0.0 | 9.0 | 0.00 | 0.00 | 0.00 | 54 | 1010.8 |
| 20260905184518 | 97 | 333 | 1.0 | 8.0 | 0.00 | 0.00 | 0.00 | 55 | 1010.9 |
| 20260905183017 | 98 | 28 | 4.0 | 9.0 | 0.00 | 0.00 | 0.00 | 53 | 1011.0 |
| 20260905181516 | 98 | 319 | 0.0 | 10.0 | 0.00 | 0.00 | 0.00 | 54 | 1011.1 |
| 20260905180017 | 98 | 303 | 5.0 | 10.0 | 0.00 | 0.00 | 0.00 | 54 | 1011.2 |
| 20260905174513 | 97 | 279 | 4.0 | 10.0 | 0.00 | 0.00 | 0.00 | 55 | 1011.3 |
| 20260905173021 | 96 | 287 | 6.0 | 11.0 | 0.00 | 0.00 | 0.00 | 55 | 1011.2 |
| 20260905171519 | 96 | 336 | 0.0 | 6.0 | 0.00 | 0.00 | 0.00 | 55 | 1011.4 |
| 20260905170012 | 96 | 304 | 4.0 | 9.0 | 0.00 | 0.00 | 0.00 | 56 | 1011.6 |
| 20260905164511 | 96 | 329 | 5.0 | 10.0 | 0.00 | 0.00 | 0.00 | 54 | 1011.7 |
| 20260905161507 | 96 | 305 | 1.0 | 7.0 | 0.00 | 0.00 | 0.00 | 55 | 1011.5 |
| 20260905160011 | 95 | 285 | 2.0 | 8.0 | 0.00 | 0.00 | 0.00 | 55 | 1011.7 |
| 20260905154505 | 95 | 296 | 1.0 | 8.0 | 0.00 | 0.00 | 0.00 | 55 | 1011.7 |
| 20260905153007 | 95 | 304 | 1.0 | 9.0 | 0.00 | 0.00 | 0.00 | 56 | 1011.6 |
| 20260905151608 | 94 | 306 | 1.0 | 5.0 | 0.00 | 0.00 | 0.00 | 59 | 1011.4 |
| 20260905150059 | 93 | 311 | 2.0 | 6.0 | 0.00 | 0.00 | 0.00 | 59 | 1011.3 |
| 20260905144557 | 91 | 299 | 2.0 | 6.0 | 0.00 | 0.00 | 0.00 | 61 | 1011.4 |
| 20260905143051 | 89 | 302 | 3.0 | 5.0 | 0.00 | 0.00 | 0.00 | 65 | 1011.4 |
| 20260905141549 | 88 | 299 | 0.0 | 5.0 | 0.00 | 0.00 | 0.00 | 67 | 1011.7 |
| 20260905140046 | 86 | 300 | 2.0 | 5.0 | 0.00 | 0.00 | 0.00 | 70 | 1011.7 |
| 20260905134543 | 86 | 268 | 0.0 | 5.0 | 0.00 | 0.00 | 0.00 | 72 | 1011.5 |
| 20260905133042 | 85 | 266 | 0.0 | 4.0 | 0.00 | 0.00 | 0.00 | 73 | 1011.5 |
| 20260905131538 | 84 | 265 | 1.0 | 4.0 | 0.00 | 0.00 | 0.00 | 74 | 1011.5 |
| 20260905130036 | 83 | 316 | 2.0 | 3.0 | 0.00 | 0.00 | 0.00 | 77 | 1011.5 |
| 20260905124539 | 82 | 323 | 2.0 | 3.0 | 0.00 | 0.00 | 0.00 | 78 | 1011.5 |
| 20260905123031 | 81 | 333 | 0.0 | 0.0 | 0.00 | 0.00 | 0.00 | 80 | 1011.4 |
| 20260905121530 | 80 | 333 | 0.0 | 0.0 | 0.00 | 0.00 | 0.00 | 81 | 1011.4 |
| 20260905120030 | 79 | 333 | 0.0 | 0.0 | 0.00 | 0.00 | 0.00 | 83 | 1011.3 |
| 20260905114530 | 80 | 333 | 0.0 | 0.0 | 0.00 | 0.00 | 0.00 | 83 | 1011.1 |
| 20260905113029 | 80 | 333 | 0.0 | 0.0 | 0.00 | 0.00 | 0.00 | 82 | 1011.1 |
| 20260905111530 | 80 | 333 | 0.0 | 0.0 | 0.00 | 0.00 | 0.00 | 81 | 1011.0 |
| 20260905110028 | 80 | 333 | 0.0 | 0.0 | 0.00 | 0.00 | 0.00 | 81 | 1011.0 |
| 20260905104528 | 80 | 333 | 0.0 | 0.0 | 0.00 | 0.00 | 0.00 | 82 | 1011.2 |
| 20260905103027 | 80 | 333 | 1.0 | 2.0 | 0.00 | 0.00 | 0.00 | 83 | 1011.1 |
| 20260905101526 | 80 | 335 | 0.0 | 1.0 | 0.00 | 0.00 | 0.00 | 84 | 1011.3 |
| 20260905100025 | 79 | 335 | 0.0 | 0.0 | 0.00 | 0.00 | 0.00 | 85 | 1011.3 |
| 20260905094533 | 79 | 335 | 0.0 | 0.0 | 0.00 | 0.00 | 0.00 | 85 | 1011.2 |
| 20260905093024 | 79 | 335 | 0.0 | 0.0 | 0.00 | 0.00 | 0.00 | 84 | 1011.2 |
| 20260905091625 | 80 | 335 | 0.0 | 0.0 | 0.00 | 0.00 | 0.00 | 84 | 1011.1 |
| 20260905090021 | 80 | 335 | 0.0 | 0.0 | 0.00 | 0.00 | 0.00 | 83 | 1011.0 |
| 20260905084521 | 80 | 335 | 0.0 | 0.0 | 0.00 | 0.00 | 0.00 | 82 | 1010.9 |
| 20260905083021 | 81 | 335 | 0.0 | 0.0 | 0.00 | 0.00 | 0.00 | 81 | 1011.0 |
| 20260905081520 | 82 | 335 | 0.0 | 0.0 | 0.00 | 0.00 | 0.00 | 80 | 1010.9 |
| 20260905080019 | 82 | 335 | 0.0 | 1.0 | 0.00 | 0.00 | 0.00 | 81 | 1010.9 |
| 20260905074520 | 82 | 340 | 1.0 | 3.0 | 0.00 | 0.00 | 0.00 | 81 | 1010.7 |
| 20260905073017 | 81 | 5 | 0.0 | 1.0 | 0.00 | 0.00 | 0.00 | 83 | 1010.7 |
| 20260905071515 | 80 | 5 | 0.0 | 1.0 | 0.00 | 0.00 | 0.00 | 85 | 1010.9 |
| 20260905070022 | 80 | 5 | 0.0 | 0.0 | 0.00 | 0.00 | 0.00 | 85 | 1011.0 |
| 20260905064512 | 80 | 5 | 0.0 | 0.0 | 0.00 | 0.00 | 0.00 | 85 | 1011.2 |
| 20260905063011 | 80 | 5 | 0.0 | 0.0 | 0.00 | 0.00 | 0.00 | 85 | 1011.3 |
| 20260905061509 | 80 | 5 | 0.0 | 0.0 | 0.00 | 0.00 | 0.00 | 85 | 1011.4 |
| 20260905060010 | 81 | 5 | 0.0 | 0.0 | 0.00 | 0.00 | 0.00 | 83 | 1011.4 |
| 20260905054508 | 81 | 5 | 0.0 | 0.0 | 0.00 | 0.00 | 0.00 | 82 | 1011.4 |
| 20260905053004 | 81 | 5 | 0.0 | 0.0 | 0.00 | 0.00 | 0.00 | 81 | 1011.5 |
| 20260905051507 | 82 | 5 | 0.0 | 0.0 | 0.00 | 0.00 | 0.00 | 81 | 1011.4 |
| 20260905050000 | 81 | 5 | 0.0 | 0.0 | 0.00 | 0.00 | 0.00 | 81 | 1011.5 |
| 20260905044502 | 81 | 5 | 0.0 | 0.0 | 0.00 | 0.00 | 0.00 | 81 | 1011.6 |
| 20260905043100 | 82 | 5 | 0.0 | 0.0 | 0.00 | 0.00 | 0.00 | 80 | 1011.7 |
| 20260905041607 | 82 | 5 | 0.0 | 0.0 | 0.00 | 0.00 | 0.00 | 80 | 1011.6 |
| 20260905040059 | 82 | 5 | 0.0 | 0.0 | 0.00 | 0.00 | 0.00 | 79 | 1011.8 |
| 20260905040002 | 82 | 5 | 0.0 | 0.0 | 0.00 | 0.00 | 0.00 | 79 | 1011.8 |
| 20260905034610 | 83 | 5 | 0.0 | 0.0 | 0.00 | 0.00 | 0.00 | 79 | 1011.7 |
| 20260905033100 | 83 | 5 | 0.0 | 0.0 | 0.00 | 0.00 | 0.00 | 77 | 1011.8 |
| 20260905031559 | 84 | 5 | 0.0 | 0.0 | 0.00 | 0.00 | 0.00 | 77 | 1011.8 |
| 20260905024601 | 84 | 5 | 0.0 | 0.0 | 0.00 | 0.00 | 0.00 | 75 | 1011.7 |
| 20260905023056 | 85 | 5 | 0.0 | 0.0 | 0.00 | 0.00 | 0.00 | 74 | 1011.7 |
| 20260905021557 | 85 | 5 | 0.0 | 1.0 | 0.00 | 0.00 | 0.00 | 73 | 1011.5 |
| 20260905020054 | 86 | 5 | 0.0 | 0.0 | 0.00 | 0.00 | 0.00 | 70 | 1011.5 |
| 20260905014554 | 86 | 5 | 0.0 | 0.0 | 0.00 | 0.00 | 0.00 | 70 | 1011.2 |
| 20260905013053 | 87 | 5 | 0.0 | 0.0 | 0.00 | 0.00 | 0.00 | 69 | 1011.1 |
| 20260905011552 | 87 | 5 | 0.0 | 0.0 | 0.00 | 0.00 | 0.00 | 68 | 1011.0 |
| 20260905010052 | 88 | 227 | 0.0 | 0.0 | 0.00 | 0.00 | 0.00 | 68 | 1010.9 |
| 20260905004552 | 89 | 227 | 0.0 | 1.0 | 0.00 | 0.00 | 0.00 | 65 | 1010.8 |
| 20260905003051 | 91 | 227 | 0.0 | 0.0 | 0.00 | 0.00 | 0.00 | 62 | 1010.7 |
| 20260905001600 | 92 | 227 | 0.0 | 0.0 | 0.00 | 0.00 | 0.00 | 60 | 1010.6 |
| 20260905000107 | 93 | 227 | 0.0 | 1.0 | 0.00 | 0.00 | 0.00 | 56 | 1010.6 |